DW4212 La Cabrera ES current weather conditions

sailwx.info

Wind from 134 at 3 knots gusting 14

Air temperature 7.2° C
Dewpoint 6.8° C

Last reported at 2014-Nov-27 20:49 UTC.
Time now 2014-Nov-27 21:51 UTC

Location: N 40°53' W 003°35'.
View on Google Maps.

See reports from other nearby stations

  
Tides and Currents Weather Stations Pressure Air Temp Water Temp Dewpoint Dewpoint Depression Visibility Wind Speed Wind Dir Waves Ship Positions
date/time (UTC)wind fromknots sea level pressurealtimeterstation pressurevisibilityair tempwater tempwave heightnotes
2014-Nov-27 20:49 134 3 gusting 14 7.2
2014-Nov-27 20:29 172 6 gusting 13 7.2
2014-Nov-27 20:19 175 3 gusting 9 7.2
2014-Nov-27 19:59 281 4 gusting 13 7.2
2014-Nov-27 19:49 184 2 gusting 12 7.2
2014-Nov-27 19:29 203 1 gusting 9 7.2
2014-Nov-27 19:19 181 0 gusting 7 7.2
2014-Nov-27 18:59 175 4 gusting 9 7.2
2014-Nov-27 18:49 180 3 gusting 9 7.2
2014-Nov-27 18:29 187 3 gusting 8 7.2
2014-Nov-27 18:19 200 1 gusting 6 7.2
2014-Nov-27 17:59 104 1 gusting 9 7.2
2014-Nov-27 17:49 172 0 gusting 7 7.2
2014-Nov-27 17:29 197 1 gusting 9 7.2
2014-Nov-27 17:19 188 0 gusting 7 7.2
2014-Nov-27 16:59 172 1 gusting 6 7.2
2014-Nov-27 16:49 141 1 gusting 5 7.2
2014-Nov-27 16:29 158 2 gusting 8 7.2
2014-Nov-27 16:19 182 1 gusting 6 7.2
2014-Nov-27 15:59 192 1 gusting 6 7.2
2014-Nov-27 15:39 159 2 gusting 7 7.8
2014-Nov-27 15:29 185 2 gusting 7 7.8
2014-Nov-27 15:19 161 2 gusting 8 7.8
2014-Nov-27 14:59 172 1 gusting 13 7.2
2014-Nov-27 14:49 155 1 gusting 11 7.2
2014-Nov-27 14:29 198 2 gusting 8 7.2
2014-Nov-27 14:19 171 2 gusting 8 7.2
2014-Nov-27 13:59 175 2 gusting 11 7.2
2014-Nov-27 13:49 063 2 gusting 13 7.2
2014-Nov-27 12:39 195 4 gusting 13 7.2
2014-Nov-27 12:29 184 3 gusting 13 7.2
2014-Nov-27 12:19 189 3 gusting 6 7.2
2014-Nov-27 11:59 167 2 gusting 11 7.2
2014-Nov-27 11:49 156 3 gusting 11 6.7
2014-Nov-27 11:29 209 3 gusting 12 6.7
2014-Nov-27 11:19 164 2 gusting 9 6.7
2014-Nov-27 10:59 182 3 gusting 7 6.7
2014-Nov-27 10:49 184 1 gusting 6 6.7
2014-Nov-27 10:29 200 0 gusting 6 6.1
2014-Nov-27 10:19 107 1 gusting 5 6.1
2014-Nov-27 09:59 186 6.1
2014-Nov-27 09:49 162 6.1
2014-Nov-27 09:29 134 6.1
2014-Nov-27 09:19 188 6.1
2014-Nov-27 08:59 144 6.1
2014-Nov-27 08:49 199 6.1
2014-Nov-27 08:29 199 6.1
2014-Nov-27 08:19 199 0 gusting 1 6.1
2014-Nov-27 07:59 199 6.1
2014-Nov-27 07:49 199 6.1
2014-Nov-27 07:29 199 6.1
2014-Nov-27 07:19 199 6.1
2014-Nov-27 06:59 199 6.1
2014-Nov-27 06:49 199 6.1
2014-Nov-27 06:29 199 6.1
2014-Nov-27 06:19 199 6.1
2014-Nov-27 05:59 199 5.6
2014-Nov-27 05:49 199 5.6
2014-Nov-27 05:29 199 5.6
2014-Nov-27 05:19 199 5.6
2014-Nov-27 04:59 199 5.6
2014-Nov-27 04:39 199 5.6
2014-Nov-27 04:29 199 5.6
2014-Nov-27 04:19 199 5.6
2014-Nov-27 03:59 199 5.6
2014-Nov-27 03:49 199 5.6
2014-Nov-27 03:29 199 5.0
2014-Nov-27 03:19 199 5.0
2014-Nov-27 02:59 199 5.0
2014-Nov-27 02:49 199 5.6
2014-Nov-27 02:29 199 5.6
2014-Nov-27 02:19 199 5.6
2014-Nov-27 01:59 199 5.0
2014-Nov-27 01:49 199 5.0
2014-Nov-27 01:29 199 5.0
2014-Nov-27 01:19 199 5.0
2014-Nov-27 00:59 199 5.0
2014-Nov-27 00:49 199 5.0
2014-Nov-27 00:29 199 5.0
2014-Nov-27 00:19 199 5.0
2014-Nov-26 23:49 199 4.4
2014-Nov-26 23:29 199 4.4
2014-Nov-26 23:19 199 4.4
2014-Nov-26 22:59 199 3.9
2014-Nov-26 22:49 199 3.9
2014-Nov-26 22:29 199 3.9
2014-Nov-26 22:19 199 3.9
2014-Nov-26 21:59 199 3.9
2014-Nov-26 21:49 199 3.9
2014-Nov-26 21:29 199 3.9
2014-Nov-26 21:19 199 4.4
2014-Nov-26 20:59 199 4.4
2014-Nov-26 20:49 199 4.4
2014-Nov-26 20:29 199 5.0
2014-Nov-26 20:19 199 4.4
2014-Nov-26 19:59 199 4.4
2014-Nov-26 19:49 199 4.4
2014-Nov-26 19:29 199 4.4
2014-Nov-26 19:19 199 5.0
2014-Nov-26 18:59 199 5.0
2014-Nov-26 18:49 199 5.6
2014-Nov-26 18:29 199 5.6
2014-Nov-26 18:19 199 6.1
2014-Nov-26 17:59 199 6.1
2014-Nov-26 17:49 199 6.7
2014-Nov-26 17:29 199 6.7
2014-Nov-26 17:09 199 7.2
2014-Nov-26 16:49 199 7.8
2014-Nov-26 16:29 199 7.8
2014-Nov-26 16:19 198 8.3
2014-Nov-26 15:59 182 0 gusting 6 8.9
2014-Nov-26 15:49 191 0 gusting 5 8.9
2014-Nov-26 15:29 186 8.9
2014-Nov-26 15:19 182 0 gusting 6 9.4
2014-Nov-26 14:59 196 0 gusting 5 10.0
2014-Nov-26 14:49 240 0 gusting 6 10.0
2014-Nov-26 14:29 150 2 gusting 6 9.4
2014-Nov-26 14:19 215 2 gusting 6 9.4
2014-Nov-26 13:29 163 10.0
2014-Nov-26 13:19 182 1 gusting 6 10.6
2014-Nov-26 12:59 177 3 gusting 7 10.6
2014-Nov-26 12:49 240 2 gusting 6 10.0
2014-Nov-26 12:29 190 0 gusting 6 10.6
2014-Nov-26 12:19 174 1 gusting 6 10.6
2014-Nov-26 11:59 179 2 gusting 6 10.0
2014-Nov-26 11:49 228 9.4
2014-Nov-26 11:29 202 0 gusting 5 9.4
2014-Nov-26 11:19 216 0 gusting 3 10.0
2014-Nov-26 10:59 224 0 gusting 5 8.9
2014-Nov-26 10:49 224 1 gusting 4 8.9
2014-Nov-26 10:29 256 8.9
2014-Nov-26 10:19 173 8.3
2014-Nov-26 09:59 180 0 gusting 6 8.3
2014-Nov-26 09:49 117 8.3
2014-Nov-26 09:29 090 8.3
2014-Nov-26 09:09 090 7.8
2014-Nov-26 08:59 090 7.8
2014-Nov-26 08:49 090 7.2
2014-Nov-26 08:29 089 0 gusting 2 7.2
2014-Nov-26 08:19 250 7.8
2014-Nov-26 07:59 250 7.8
2014-Nov-26 07:49 250 7.2
2014-Nov-26 07:29 250 7.2
2014-Nov-26 07:19 250 7.2
2014-Nov-26 06:59 250 7.2
2014-Nov-26 06:49 250 7.2
2014-Nov-26 06:29 252 7.2
2014-Nov-26 06:19 252 7.2
2014-Nov-26 05:59 198 7.8
2014-Nov-26 05:49 198 7.8
2014-Nov-26 05:29 198 7.8
2014-Nov-26 05:19 198 0 gusting 2 7.8
2014-Nov-26 04:59 198 7.8
2014-Nov-26 04:49 198 8.3
2014-Nov-26 04:39 198 8.3
2014-Nov-26 04:29 198 8.3
2014-Nov-26 04:19 198 8.3
2014-Nov-26 04:09 198 8.3
2014-Nov-26 03:59 198 8.3
2014-Nov-26 03:49 198 8.3
2014-Nov-26 03:29 198 8.3
2014-Nov-26 03:19 198 8.3
2014-Nov-26 02:59 198 8.3
2014-Nov-26 02:49 198 8.3
2014-Nov-26 02:29 198 8.3
2014-Nov-26 02:19 198 8.3
2014-Nov-26 01:59 198 8.3
2014-Nov-26 01:49 198 8.3
2014-Nov-26 01:29 198 8.3
2014-Nov-26 01:19 198 8.3
2014-Nov-26 00:59 198 8.3
2014-Nov-26 00:49 198 8.3
2014-Nov-26 00:29 198 8.3
2014-Nov-26 00:19 198 8.3
2014-Nov-25 23:59 198 8.3
2014-Nov-25 23:49 198 8.3
2014-Nov-25 23:39 198 8.3
2014-Nov-25 23:29 198 8.3
2014-Nov-25 23:19 198 8.3
2014-Nov-25 23:09 198 8.3
2014-Nov-25 22:59 198 8.9
2014-Nov-25 22:49 198 8.9
2014-Nov-25 22:29 198 8.9
2014-Nov-25 22:19 198 8.9
2014-Nov-25 21:49 239 8.3
2014-Nov-25 21:29 252 8.3
2014-Nov-25 21:19 252 8.3